EN

Hourly Weather Abercorn

Today, 28 November, Saturday

Time Temperature Precipitation Wind Pressure Humidity
00:00 +4°C° 0.1 mm 1 mps 742 mmHg 93%
01:00 +5°C° 0.1 mm 1 mps 741 mmHg 94%
02:00 +4°C° 0.1 mm 1 mps 741 mmHg 94%
03:00 +4°C° 0.1 mm 1 mps 741 mmHg 95%
04:00 +4°C° 0.1 mm 1 mps 741 mmHg 95%
05:00 +4°C° 0 mm 1 mps 741 mmHg 95%
06:00 +4°C° 0 mm 1 mps 741 mmHg 95%
07:00 +3°C° 0 mm 1 mps 741 mmHg 95%
08:00 +4°C° 0 mm 1 mps 741 mmHg 93%
09:00 +5°C° 0 mm 1 mps 741 mmHg 92%
10:00 +5°C° 0 mm 1 mps 741 mmHg 90%
11:00 +4°C° 0.3 mm 2 mps 740 mmHg 87%
12:00 +5°C° 0.3 mm 2 mps 740 mmHg 85%
13:00 +4°C° 0.3 mm 3 mps 740 mmHg 83%
14:00 +4°C° 0.2 mm 3 mps 740 mmHg 84%
15:00 +3°C° 0.2 mm 3 mps 740 mmHg 85%
16:00 +3°C° 0.2 mm 3 mps 741 mmHg 86%
17:00 +3°C° 0 mm 2 mps 741 mmHg 88%
18:00 +2°C° 0 mm 2 mps 741 mmHg 90%
19:00 +1°C° 0 mm 2 mps 742 mmHg 92%
20:00 +1°C° 0.1 mm 2 mps 742 mmHg 92%
21:00 +1°C° 0.1 mm 2 mps 742 mmHg 92%
22:00 +1°C° 0.1 mm 2 mps 742 mmHg 92%
23:00 +1°C° 0 mm 2 mps 742 mmHg 90%

Tomorrow, 29 November, Sunday

Time Temperature Precipitation Wind Pressure Humidity
00:00 +1°C° 0 mm 2 mps 742 mmHg 89%
01:00 +1°C° 0 mm 2 mps 742 mmHg 87%
02:00 +1°C° 0 mm 2 mps 743 mmHg 88%
03:00 +1°C° 0 mm 2 mps 743 mmHg 88%
04:00 +1°C° 0 mm 2 mps 743 mmHg 88%
05:00 +1°C° 0 mm 2 mps 743 mmHg 89%
06:00 +1°C° 0 mm 2 mps 743 mmHg 89%
07:00 +1°C° 0 mm 2 mps 744 mmHg 90%
08:00 +2°C° 0 mm 2 mps 744 mmHg 86%
09:00 +2°C° 0 mm 3 mps 744 mmHg 81%
10:00 +3°C° 0 mm 3 mps 744 mmHg 77%
11:00 +4°C° 0 mm 3 mps 744 mmHg 75%
12:00 +4°C° 0 mm 3 mps 744 mmHg 73%
13:00 +5°C° 0 mm 3 mps 744 mmHg 71%
14:00 +4°C° 0 mm 3 mps 744 mmHg 75%
15:00 +4°C° 0 mm 2 mps 744 mmHg 79%
16:00 +3°C° 0 mm 2 mps 744 mmHg 83%
17:00 +3°C° 0 mm 2 mps 744 mmHg 84%
18:00 +3°C° 0 mm 1 mps 744 mmHg 86%
19:00 +3°C° 0 mm 1 mps 745 mmHg 88%
20:00 +3°C° 0 mm 1 mps 745 mmHg 87%
21:00 +2°C° 0 mm 2 mps 745 mmHg 87%
22:00 +2°C° 0 mm 2 mps 744 mmHg 87%
23:00 +2°C° 0 mm 2 mps 744 mmHg 87%

Day after tomorrow, 30 November, Monday

Time Temperature Precipitation Wind Pressure Humidity
00:00 +2°C° 0 mm 1 mps 744 mmHg 87%
01:00 +2°C° 0 mm 1 mps 744 mmHg 87%
02:00 +2°C° 0 mm 1 mps 744 mmHg 86%
03:00 +2°C° 0 mm 1 mps 744 mmHg 86%
04:00 +2°C° 0 mm 1 mps 744 mmHg 85%
05:00 +2°C° 0 mm 1 mps 744 mmHg 85%
06:00 +2°C° 0 mm 1 mps 744 mmHg 84%
07:00 +2°C° 0 mm 1 mps 744 mmHg 83%
08:00 +2°C° 0 mm 2 mps 743 mmHg 79%
09:00 +4°C° 0 mm 2 mps 743 mmHg 74%
10:00 +5°C° 0 mm 2 mps 743 mmHg 70%
11:00 +6°C° 0 mm 2 mps 743 mmHg 71%
12:00 +6°C° 0 mm 2 mps 742 mmHg 72%
13:00 +7°C° 0 mm 2 mps 742 mmHg 73%
14:00 +6°C° 0.3 mm 2 mps 742 mmHg 77%
15:00 +6°C° 0.3 mm 2 mps 741 mmHg 82%
16:00 +5°C° 0.3 mm 2 mps 741 mmHg 87%
17:00 +4°C° 1.4 mm 3 mps 740 mmHg 88%
18:00 +5°C° 1.4 mm 4 mps 739 mmHg 90%
19:00 +5°C° 1.4 mm 4 mps 738 mmHg 91%
20:00 +6°C° 0.2 mm 5 mps 737 mmHg 88%
21:00 +8°C° 0.2 mm 6 mps 735 mmHg 85%
22:00 +10°C° 0.2 mm 7 mps 734 mmHg 83%
23:00 +10°C° 0.1 mm 7 mps 734 mmHg 83%

1 December, Tuesday

Time Temperature Precipitation Wind Pressure Humidity
00:00 +11°C° 0.1 mm 6 mps 733 mmHg 83%
01:00 +11°C° 0.1 mm 6 mps 733 mmHg 83%
02:00 +12°C° 0 mm 5 mps 733 mmHg 85%
03:00 +12°C° 0 mm 4 mps 733 mmHg 87%
04:00 +12°C° 0 mm 3 mps 733 mmHg 88%
05:00 +11°C° 0 mm 3 mps 733 mmHg 89%
06:00 +11°C° 0 mm 3 mps 733 mmHg 91%
07:00 +11°C° 0 mm 3 mps 733 mmHg 92%
08:00 +11°C° 0 mm 3 mps 733 mmHg 90%
09:00 +12°C° 0 mm 3 mps 733 mmHg 89%
10:00 +13°C° 0 mm 3 mps 732 mmHg 88%
11:00 +14°C° 0 mm 4 mps 732 mmHg 82%
12:00 +16°C° 0 mm 5 mps 731 mmHg 77%
13:00 +17°C° 0 mm 6 mps 730 mmHg 71%
14:00 +16°C° 0.6 mm 6 mps 730 mmHg 75%
15:00 +15°C° 0.6 mm 6 mps 729 mmHg 79%
16:00 +14°C° 0.6 mm 6 mps 729 mmHg 83%
17:00 +14°C° 0.1 mm 5 mps 729 mmHg 85%
18:00 +13°C° 0.1 mm 4 mps 728 mmHg 87%
19:00 +13°C° 0.1 mm 3 mps 728 mmHg 89%
20:00 +12°C° 0 mm 4 mps 729 mmHg 84%
21:00 +10°C° 0 mm 5 mps 729 mmHg 78%
22:00 +9°C° 0 mm 6 mps 729 mmHg 73%
23:00 +7°C° 0 mm 6 mps 730 mmHg 74%

2 December, Wednesday

Time Temperature Precipitation Wind Pressure Humidity
00:00 +5°C° 0 mm 6 mps 730 mmHg 74%
01:00 +5°C° 0 mm 5 mps 731 mmHg 75%
02:00 +3°C° 0.1 mm 5 mps 732 mmHg 75%
03:00 +3°C° 0.1 mm 5 mps 733 mmHg 75%
04:00 +2°C° 0.1 mm 5 mps 734 mmHg 75%
05:00 +1°C° 0 mm 5 mps 734 mmHg 75%
06:00 0°C° 0 mm 5 mps 735 mmHg 75%
07:00 0°C° 0 mm 5 mps 736 mmHg 74%
08:00 0°C° 0 mm 5 mps 736 mmHg 71%
09:00 +1°C° 0 mm 5 mps 736 mmHg 69%
10:00 +1°C° 0 mm 5 mps 737 mmHg 66%
11:00 +1°C° 0 mm 5 mps 737 mmHg 66%
12:00 +1°C° 0 mm 6 mps 737 mmHg 65%
13:00 +2°C° 0 mm 6 mps 737 mmHg 65%
14:00 +1°C° 0 mm 5 mps 738 mmHg 67%
15:00 +1°C° 0 mm 5 mps 738 mmHg 69%
16:00 0°C° 0 mm 5 mps 738 mmHg 71%
17:00 0°C° 0 mm 5 mps 738 mmHg 73%
18:00 0°C° 0 mm 5 mps 738 mmHg 74%
19:00 0°C° 0 mm 5 mps 738 mmHg 75%
20:00 0°C° 0 mm 5 mps 738 mmHg 75%
21:00 0°C° 0 mm 5 mps 738 mmHg 74%
22:00 0°C° 0 mm 5 mps 738 mmHg 73%
23:00 0°C° 0.1 mm 5 mps 738 mmHg 76%

3 December, Thursday

Time Temperature Precipitation Wind Pressure Humidity
00:00 0°C° 0.1 mm 5 mps 738 mmHg 79%
01:00 0°C° 0.1 mm 5 mps 738 mmHg 82%
02:00 0°C° 0.2 mm 5 mps 738 mmHg 82%
03:00 0°C° 0.2 mm 5 mps 738 mmHg 83%
04:00 0°C° 0.2 mm 4 mps 738 mmHg 84%
05:00 0°C° 0.1 mm 5 mps 738 mmHg 84%
06:00 0°C° 0.1 mm 5 mps 738 mmHg 84%
07:00 0°C° 0.1 mm 5 mps 738 mmHg 84%
08:00 0°C° 0.2 mm 5 mps 738 mmHg 84%
09:00 +1°C° 0.2 mm 5 mps 738 mmHg 84%
10:00 +1°C° 0.2 mm 5 mps 738 mmHg 84%
11:00 +1°C° 0.3 mm 6 mps 738 mmHg 86%
12:00 +1°C° 0.3 mm 6 mps 739 mmHg 87%
13:00 +2°C° 0.3 mm 6 mps 739 mmHg 88%
14:00 +1°C° 0.7 mm 6 mps 739 mmHg 89%
15:00 +1°C° 0.7 mm 6 mps 739 mmHg 89%
16:00 +1°C° 0.7 mm 6 mps 739 mmHg 90%
17:00 +1°C° 0.4 mm 6 mps 739 mmHg 91%
18:00 +1°C° 0.4 mm 6 mps 739 mmHg 91%
19:00 +1°C° 0.4 mm 5 mps 739 mmHg 92%
20:00 +1°C° 0.2 mm 5 mps 739 mmHg 92%
21:00 +1°C° 0.2 mm 5 mps 739 mmHg 92%
22:00 +1°C° 0.2 mm 5 mps 739 mmHg 92%
23:00 +1°C° 0.3 mm 5 mps 739 mmHg 92%
Show more